Simultaneous Nadir Overpasses (SNOs) Predictions

Prediction of SNOs between AURA and NPP Satellite Orbit:

Table of predicted SNOs for the next 14.0 days since TLE Epoch: 6/17/2023
Index Date (AURA) Time (AURA) Lat,Lon (AURA) SZA (AURA ) Date (NPP) Time (NPP) Lat,Lon (NPP) SZA (NPP ) Distance(km) Time Diff (sec)
1 06/18/2023 01:23:29 -79.82,-121.15 111.16 06/18/2023 01:23:13 -79.83,-121.03 111.17 2.53 16
2 06/18/2023 02:12:51 79.93, 47.40 68.66 06/18/2023 02:13:54 79.93, 47.29 68.64 2.22 63
3 06/20/2023 16:49:28 79.79,-172.89 68.88 06/20/2023 16:49:21 79.78,-172.97 68.90 1.75 7
4 06/20/2023 17:38:48 -80.01, -3.47 111.48 06/20/2023 17:39:59 -80.00, -3.50 111.52 0.77 71
5 06/23/2023 07:28:09 73.87, -55.60 76.23 06/23/2023 07:26:56 74.19, -57.50 76.50 67.73 73
6 06/23/2023 08:15:26 -79.80, 135.74 111.12 06/23/2023 08:15:28 -79.80, 135.62 111.10 2.50 2
7 06/25/2023 22:52:01 -79.67, -84.39 110.83 06/25/2023 22:50:54 -79.67, -84.37 110.79 0.34 67
8 06/25/2023 23:41:19 79.92, 85.17 68.78 06/25/2023 23:41:30 79.92, 85.32 68.75 2.95 11
9 06/28/2023 14:17:56 79.64,-136.05 69.34 06/28/2023 14:17:00 79.64,-136.17 69.40 2.38 56



Historial Predications of SNOs between AURA and NPP
